Regional Weather Roundup
Issued by NWS

Home | Current Version | Previous Version | Graphics & Text | Print | Product List | Glossary On
Versions: 1 2 3 4 5 6 7 8 9 10 11 12 13 14 15 16 17 18 19 20 21 22 23 24 25 26 27 28 29 30 31 32 33 34 35 36 37 38 39 40 41 42 43 44 45 46 47 48 49 50
245
ASUS43 KMPX 230501
RWRMN
WEATHER ROUNDUP FOR MINNESOTA
NATIONAL WEATHER SERVICE TWIN CITIES/CHANHASSEN MN
1100 PM CST SUN JAN 22 2017


NOTE: "FAIR" INDICATES FEW OR NO CLOUDS BELOW 12,000 FEET WITH NO
SIGNIFICANT WEATHER AND/OR OBSTRUCTIONS TO VISIBILITY. N/A MEANS
CURRENT SKY AND/OR WEATHER CONDITIONS ARE NOT AVAILABLE.

MNZ060>063-068>070-230600-
   Twin Cities Metro

CITY           SKY/WX    TMP DP  RH WIND       PRES   REMARKS
TWIN CITIES    DRIZZLE   34  32  92 W9        29.79S FOG     WCI  27
ST PAUL        CLOUDY    35  35 100 W7        29.80S FOG     WCI  29
CRYSTAL        CLOUDY    34  31  88 W8        29.78S FOG     WCI  27
BLAINE         CLOUDY    36  36 100 W7        29.78S FOG
LAKEVILLE      CLOUDY    30  30 100 W8        29.80S FOG     WCI  23
EDEN PRAIRIE   CLOUDY    33  32  96 W7        29.79R FOG     WCI  27
SOUTH ST PAUL  CLOUDY    35  35 100 W7        29.79R FOG     WCI  29
LAKE ELMO      CLOUDY    36  36 100 W3        29.79S FOG
$$
MNZ001>005-007-008-013>017-022>024-027-028-230600-
   Northwest Minnesota

CITY           SKY/WX    TMP DP  RH WIND       PRES   REMARKS
BEMIDJI        CLOUDY    31  31 100 W7        29.74S FOG     WCI  25
HALLOCK        CLOUDY    32  30  93 W6        29.75S WCI  26
ROSEAU         LGT SNOW  34  28  80 SW6       29.74R WCI  29
WARROAD        CLOUDY    34  28  80 SW5       29.74S FOG     WCI  30
THIEF RVR FALL CLOUDY    30  29  96 SW8       29.76S FOG     WCI  22
CROOKSTON      CLOUDY    32  30  93 SW5       29.78S WCI  27
FOSSTON        FOG       30  28  93 W5        29.76S VSB 3/4 WCI  25
DETROIT LAKES  CLOUDY    32  32 100 NW7       29.78S FOG     WCI  26
MOORHEAD       CLOUDY    32  28  86 NW6       29.80S WCI  26
PARK RAPIDS    CLOUDY    32  29  88 W8        29.75R FOG     WCI  25
MAHNOMEN       CLOUDY    30  30  99 W8        29.77R FOG     WCI  23
$$
MNZ006-009>011-018-025>026-230600-
   North Central Minnesota

CITY           SKY/WX    TMP DP  RH WIND       PRES   REMARKS
BAUDETTE       FOG       33  32  96 CALM      29.72S VSB 3/4
FLAG ISLAND    CLOUDY    34  32  93 CALM      29.72S FOG
INTL FALLS     FOG       35  34  96 CALM      29.72R VSB 1/4
WASKISH        CLOUDY    34  32  93 SW8       29.74S FOG     WCI  27
BIG FORK       FOG       36  34  93 CALM      29.74R VSB 1/2
LONGVILLE      CLOUDY    34  34 100 CALM      29.74S FOG
GRAND RAPIDS   FOG       35  34  96 W5        29.75R VSB 1/2 WCI  31
CRANE LAKE     CLOUDY    30  30 100 CALM      29.74R FOG
ORR            CLOUDY    32  30  93 CALM      29.70R FOG
COOK           CLOUDY    32  32 100 CALM      29.73R
WALKER         CLOUDY    32  32  99 W6        29.75R WCI  26
$$
MNZ012-019>021-037-230600-
   Northeast Minnesota

CITY           SKY/WX    TMP DP  RH WIND       PRES   REMARKS
DULUTH         CLOUDY    35  34  96 NW5       29.71R WCI  31
ELY            FOG       32  32 100 CALM      29.71R VSB 1/2
HIBBING        FOG       32  32 100 CALM      29.72R VSB 1/2
EVELETH        CLOUDY    33  33  99 NW3       29.73R
DULUTH HARBOR  CLOUDY    36  34  93 W3        29.75R
TWO HARBORS    CLOUDY    37  34  87 CALM      29.70S
SILVER BAY     CLOUDY    36  36 100 CALM      29.70R
GRAND MARAIS     N/A     38  33  82 CALM      29.71F
G MARAIS ARPRT CLOUDY    30  28  93 N3        29.68S
$$
MNZ029>031-032-039>041-046>048-054>057-064-230600-
   West Central Minnesota

CITY           SKY/WX    TMP DP  RH WIND       PRES   REMARKS
FERGUS FALLS   CLOUDY    30  30 100 NW7       29.83S WCI  23
WHEATON        CLOUDY    37  37 100 W7        29.83S
MORRIS         MOCLDY    34  32  93 NW9       29.79S FOG     WCI  26
ALEXANDRIA     CLOUDY    31  30  96 NW13      29.79R FOG     WCI  21
ELBOW LAKE     CLOUDY    31  30  99 W8        29.80S FOG     WCI  23
WADENA         CLOUDY    30  30 100 W5        29.77  FOG     WCI  25
GLENWOOD       CLOUDY    30  30 100 W13       29.79S FOG     WCI  20
APPLETON       CLOUDY    34  30  86 W6        29.81S WCI  29
ORTONVILLE     CLOUDY    34  28  80 CALM      29.81S
MADISON        CLOUDY    36  34  93 W7        29.82S
WILLMAR        CLOUDY    34  34 100 CALM      29.82R FOG
$$
MNZ033>034-036-042>043-049>051-058-059-230600-
   Central Minnesota

CITY           SKY/WX    TMP DP  RH WIND       PRES   REMARKS
ST CLOUD       CLOUDY    33  33 100 W8        29.78S FOG     WCI  26
SAUK CENTRE    CLOUDY    32  31  98 NW7       29.79R FOG     WCI  25
PAYNESVILLE    CLOUDY    32  32 100 W6        29.80R FOG     WCI  26
AITKIN         FOG       37  34  87 CALM      29.74S VSB 3/4
PINE RIVER     CLOUDY    34  34 100 CALM      29.79R FOG
BRAINERD       CLOUDY    33  32  96 W7        29.76R FOG     WCI  27
STAPLES        CLOUDY    30  30 100 W8        29.77R FOG     WCI  23
LONG PRAIRIE   CLOUDY    32  30  93 SW6       29.78S FOG     WCI  26
LITTLE FALLS   CLOUDY    32  32 100 W5        29.78R FOG     WCI  27
LITCHFIELD     CLOUDY    34  34 100 W3        29.80S FOG
BUFFALO        CLOUDY    32  32  98 SW5       29.81R FOG     WCI  28
MAPLE LAKE     CLOUDY    33  33 100 W7        29.80S FOG     WCI  27
HUTCHINSON     CLOUDY    33  32  97 W6        29.82S FOG     WCI  27
$$
MNZ037-044-045-052-053-230600-
   East Central Minnesota

CITY           SKY/WX    TMP DP  RH WIND       PRES   REMARKS
PRINCETON      CLOUDY    36  34  93 W3        29.78S FOG
MORA           CLOUDY    34  32  93 W5        29.78R FOG     WCI  30
CAMBRIDGE      LGT RAIN  36  36 100 CALM      29.76R
RUSH CITY      CLOUDY    36  34  93 W5        29.77R FOG
MOOSE LAKE     FOG       34  34 100 CALM      29.73R VSB 3/4
HINCKLEY       CLOUDY    36  36 100 W3        29.76R FOG
CLOQUET        FOG       36  34  93 CALM      29.73R VSB 1/2
MCGREGOR       CLOUDY    34  34 100 CALM      29.75R
$$
MNZ071>073-080-081-089-090-097-098-230600-
   Southwest Minnesota

CITY           SKY/WX    TMP DP  RH WIND       PRES   REMARKS
MONTEVIDEO     CLOUDY    34  34 100 NW5       29.83S WCI  30
GRANITE FALLS  CLOUDY    34  32  92 W6        29.84S WCI  29
CANBY          CLOUDY    34  31  90 CALM      29.84R
MARSHALL       CLOUDY    32  29  88 W6        29.83S WCI  26
REDWOOD FALLS  CLOUDY    33  28  81 NW7       29.82S WCI  27
OLIVIA         CLOUDY    32  32 100 W6        29.81S WCI  26
PIPESTONE      CLOUDY    30  28  93 N12G18    29.82S WCI  21
WINDOM         CLOUDY    30  30 100 NW7       29.82S FOG     WCI  23
WORTHINGTON    CLOUDY    30  28  92 NW13      29.84R WCI  20
JACKSON        CLOUDY    30  28  93 NW12      29.83S FOG     WCI  21
TRACY          CLOUDY    33  30  91 NW7       29.83S WCI  26
SLAYTON        CLOUDY    30  28  92 NW10      29.83S WCI  21
$$
MNZ065>067-074>077-082>085-091>093-230600-
   South Central Minnesota

CITY           SKY/WX    TMP DP  RH WIND       PRES   REMARKS
MANKATO        CLOUDY    32  30  92 W7        29.82S FOG     WCI  26
NEW ULM        CLOUDY    32  30  93 W8        29.82S WCI  25
ST JAMES       CLOUDY    32  30  93 W10       29.84S WCI  24
FAIRMONT       CLOUDY    31  30  96 NW9       29.83S FOG     WCI  23
GLENCOE        CLOUDY    33  33 100 W7        29.80S FOG     WCI  27
OWATONNA       CLOUDY    32  30  93 W8        29.81S FOG     WCI  25
WASECA         CLOUDY    32  32 100 W10       29.82S FOG     WCI  24
ALBERT LEA     CLOUDY    32  32 100 NW8G17    29.80S FOG     WCI  25
$$
MNZ078>079-086>088-094>096-230600-
   Southeast Minnesota

CITY           SKY/WX    TMP DP  RH WIND       PRES   REMARKS
ROCHESTER      CLOUDY    33  33 100 NW12      29.77F FOG     WCI  24
RED WING       DRIZZLE   36  34  93 W5        29.78S
STANTON        CLOUDY    34  32  94 W9        29.79R FOG     WCI  26
DODGE CENTER   CLOUDY    32  32 100 W10       29.78F FOG     WCI  24
WINONA         CLOUDY    34  34 100 CALM      29.77F FOG
AUSTIN         CLOUDY    34  32  93 NW10G18   29.78F FOG     WCI  26
PRESTON        CLOUDY    33  32  96 NW10      29.76F FOG     WCI  25
$$
ABBREVIATIONS USED IN REMARKS
   TC - TEMPERATURES IN CELSIUS
  WCI - WIND CHILL INDEX
   HX - HEAT INDEX
  VSB - VISIBILITY
$$




USA.gov is the U.S. government's official web portal to all federal, state and local government web resources and services.